Location: Austin
(30.3000°N, 97.7500°W)
Time: 22:57:45
(UTC-05:00)

SL-19 R/B - Pass Details

Date: 08 April 2026
Orbit: 796 x 1008 km, 99.5° (Epoch: 20 April)

Event Time Altitude Azimuth Distance (km) Brightness Sun altitude
Rises 20:23:46 0° 153° (SSE) 3,293 6.9 -7.1°
Reaches altitude 10° 20:26:08 10° 149° (SSE) 2,359 6.1 -7.6°
Maximum altitude 20:31:09 54° 73° (ENE) 965 4.2 -8.6°
Drops below altitude 10° 20:36:14 10° 357° (N) 2,391 6.8 -9.7°
Sets 20:38:38 0° 353° (N) 3,343 7.6 -10.2°
